This is the latest recevied weather packets stored in our database for station/object DB0SVX. If no packets are shown the sender has not sent any weather packets the latest 10 day(s).
| Time | Temp. | Humidity | Pressure | Rain* | Wind** | Luminosity | Snow |
|---|---|---|---|---|---|---|---|
| 1777956021 | 7.22° C | 25% | 1008.4 hPa | 0 mm | - | - | - |
| 1777955121 | 7.22° C | 29% | 1008.5 hPa | 0 mm | - | - | - |
| 1777954221 | 6.67° C | 32% | 1008.7 hPa | 0 mm | - | - | - |
| 1777953321 | 6.67° C | 35% | 1008.5 hPa | 0 mm | - | - | - |
| 1777952421 | 6.67° C | 35% | 1008.5 hPa | 0 mm | - | - | - |
| 1777951521 | 7.22° C | 36% | 1008.9 hPa | 0 mm | - | - | - |
| 1777950621 | 7.22° C | 37% | 1008.7 hPa | 0 mm | - | - | - |
| 1777949721 | 7.22° C | 39% | 1008.9 hPa | 0 mm | - | - | - |
| 1777948821 | 7.22° C | 39% | 1009 hPa | 0 mm | - | - | - |
| 1777947921 | 7.78° C | 40% | 1009 hPa | 0 mm | - | - | - |
| 1777947021 | 7.78° C | 42% | 1009.4 hPa | 0 mm | - | - | - |
| 1777946121 | 7.78° C | 43% | 1009.5 hPa | 0 mm | - | - | - |
| 1777945221 | 8.33° C | 43% | 1009.7 hPa | 0 mm | - | - | - |
| 1777944321 | 8.89° C | 43% | 1009.7 hPa | 0 mm | - | - | - |
| 1777943421 | 8.89° C | 44% | 1009.7 hPa | 0 mm | - | - | - |
| 1777942521 | 8.89° C | 45% | 1009.9 hPa | 0 mm | - | - | - |
| 1777941621 | 8.89° C | 47% | 1009.9 hPa | 0 mm | - | - | - |
| 1777940721 | 8.89° C | 48% | 1010 hPa | 0 mm | - | - | - |
| 1777939821 | 8.89° C | 49% | 1010.2 hPa | 0 mm | - | - | - |
| 1777938921 | 8.89° C | 50% | 1010.2 hPa | 0 mm | - | - | - |
| 1777938021 | 9.44° C | 51% | 1010.4 hPa | 0 mm | - | - | - |
| 1777937121 | 10° C | 51% | 1010.5 hPa | 0 mm | - | - | - |
| 1777936221 | 10.56° C | 51% | 1010.5 hPa | 0 mm | - | - | - |
| 1777935321 | 11.11° C | 50% | 1010.7 hPa | 0 mm | - | - | - |
| 1777934421 | 11.67° C | 50% | 1010.7 hPa | 0 mm | - | - | - |
* Rain latest hour (hover to see other rain measurements)
** Current wind speed in m/s (hover to see current wind gust speed)